Weather History for Cumberland, WI

Change the Weather History Date:

Thursday, September 26, 2013

  Actual Average (KRPD) Record (KRPD)
Temperature  
Mean Temperature 60 °F -  
Max Temperature 71 °F 62 °F 80 °F (2008)
Min Temperature 48 °F 41 °F 32 °F (2012)
Degree Days  
Heating Degree Days 6    
Growing Degree Days 10 (Base 50)    
Moisture  
Dew Point 50 °F    
Average Humidity 73    
Maximum Humidity 94    
Minimum Humidity 50    
Precipitation  
Precipitation 0.00 in - - ()
Sea Level Pressure  
Sea Level Pressure 29.98 in    
Wind  
Wind Speed 7 mph (SE)    
Max Wind Speed 15 mph    
Max Gust Speed 21 mph    
Visibility 9 miles    
Events      
Averages and records for this station are not official NWS values.
T = Trace of Precipitation, MM = Missing Value Source: NWS Daily Summary

Daily Weather History Graph

Daily Weather History Graph

Search for Another Location

Airport:

Trip Planner

Search our weather history database for the weather conditions in past years. The results will help you decide how hot, cold, wet, or windy it might be!

Date:

Astronomy

Sep. 26, 2013 Rise Set
Actual Time 7:00 AM CDT 6:57 PM CDT
Civil Twilight 6:30 AM CDT 7:26 PM CDT
Nautical Twilight 5:56 AM CDT 8:01 PM CDT
Astronomical Twilight 5:20 AM CDT 8:36 PM CDT
Moon 11:41 PM CDT (9/26) 2:07 PM CDT (9/26)
Length of Visible Light 12h 56m
Length of Day
11h 57m
Waning Gibbous, 54% of the Moon is Illuminated
Sep 26
Waning Gibbous
Sep 26
Last Quarter
Oct 4
New
Oct 11
First Quarter
Oct 18
Full

Hourly Weather History & Observations

Time (CDT) Temp. Dew Point Humidity Pressure Visibility Wind Dir Wind Speed Gust Speed Precip Events Conditions
12:15 AM 51.8 °F 46.4 °F 82% 29.98 in 10.0 mi SSE 3.5 mph - N/A   Clear
12:35 AM 50.0 °F 46.4 °F 87% 29.98 in 10.0 mi SE 4.6 mph - N/A   Clear
12:55 AM 50.0 °F 46.4 °F 87% 29.98 in 10.0 mi SE 3.5 mph - N/A   Clear
1:15 AM 50.0 °F 46.4 °F 87% 29.98 in 10.0 mi ESE 4.6 mph - N/A   Clear
1:35 AM 50.0 °F 46.4 °F 87% 29.98 in 10.0 mi ESE 5.8 mph - N/A   Clear
1:55 AM 50.0 °F 46.4 °F 87% 29.99 in 10.0 mi SE 3.5 mph - N/A   Clear
2:15 AM 50.0 °F 46.4 °F 87% 29.99 in 10.0 mi ESE 6.9 mph - N/A   Clear
2:35 AM 50.0 °F 46.4 °F 87% 29.98 in 10.0 mi ESE 5.8 mph - N/A   Clear
2:55 AM 50.0 °F 48.2 °F 94% 29.98 in 10.0 mi ESE 8.1 mph - N/A   Clear
3:15 AM 50.0 °F 46.4 °F 87% 29.98 in 10.0 mi ESE 5.8 mph - N/A   Clear
3:35 AM 50.0 °F 46.4 °F 87% 29.98 in 7.0 mi SE 4.6 mph - N/A   Clear
3:55 AM 50.0 °F 46.4 °F 87% 29.98 in 7.0 mi ESE 4.6 mph - N/A   Clear
4:15 AM 50.0 °F 46.4 °F 87% 29.98 in 7.0 mi SE 4.6 mph - N/A   Clear
4:35 AM 50.0 °F 46.4 °F 87% 29.98 in 7.0 mi SE 5.8 mph - N/A   Clear
4:55 AM 50.0 °F 46.4 °F 87% 29.98 in 7.0 mi ESE 5.8 mph - N/A   Clear
5:15 AM 50.0 °F 46.4 °F 87% 29.98 in 5.0 mi SE 5.8 mph - N/A   Clear
5:35 AM 50.0 °F 46.4 °F 87% 29.98 in 5.0 mi SE 5.8 mph - N/A   Clear
5:55 AM 48.2 °F 46.4 °F 93% 29.98 in 5.0 mi SE 4.6 mph - N/A   Clear
6:15 AM 48.2 °F 46.4 °F 93% 29.98 in 5.0 mi SE 5.8 mph - N/A   Clear
6:35 AM 48.2 °F 46.4 °F 93% 29.99 in 5.0 mi ESE 5.8 mph - N/A   Clear
6:55 AM 48.2 °F 46.4 °F 93% 29.99 in 3.0 mi SE 5.8 mph - N/A   Clear
7:15 AM 48.2 °F 46.4 °F 93% 29.99 in 3.0 mi SE 4.6 mph - N/A   Clear
7:35 AM 50.0 °F 46.4 °F 87% 30.00 in 3.0 mi SE 6.9 mph - N/A   Clear
7:55 AM 50.0 °F 48.2 °F 94% 30.01 in 3.0 mi SE 5.8 mph - N/A   Clear
8:15 AM 50.0 °F 48.2 °F 94% 30.01 in 4.0 mi SE 6.9 mph - N/A   Clear
8:35 AM 51.8 °F 50.0 °F 94% 30.01 in 5.0 mi SE 5.8 mph - N/A   Clear
8:55 AM 51.8 °F 50.0 °F 94% 30.01 in 7.0 mi SE 8.1 mph - N/A   Clear
9:15 AM 53.6 °F 50.0 °F 88% 30.01 in 7.0 mi SE 8.1 mph - N/A   Clear
9:35 AM 55.4 °F 50.0 °F 82% 30.01 in 10.0 mi SE 10.4 mph - N/A   Clear
9:55 AM 57.2 °F 50.0 °F 77% 30.01 in 10.0 mi SE 5.8 mph - N/A   Clear
10:15 AM 59.0 °F 50.0 °F 72% 30.01 in 10.0 mi SE 10.4 mph - N/A   Clear
10:35 AM 60.8 °F 50.0 °F 68% 30.00 in 10.0 mi SE 6.9 mph - N/A   Clear
10:55 AM 62.6 °F 50.0 °F 63% 30.01 in 10.0 mi SE 10.4 mph 18.4 mph N/A   Clear
11:15 AM 62.6 °F 50.0 °F 63% 30.01 in 10.0 mi SSE 11.5 mph 18.4 mph N/A   Clear
11:35 AM 64.4 °F 50.0 °F 59% 30.01 in 10.0 mi SSE 11.5 mph 16.1 mph N/A   Clear
11:55 AM 66.2 °F 50.0 °F 56% 30.00 in 10.0 mi SE 9.2 mph - N/A   Clear
12:15 PM 68.0 °F 50.0 °F 52% 30.00 in 10.0 mi SSE 10.4 mph 17.3 mph N/A   Clear
12:35 PM 68.0 °F 50.0 °F 52% 29.99 in 10.0 mi SE 10.4 mph 17.3 mph N/A   Clear
12:55 PM 68.0 °F 50.0 °F 52% 29.99 in 10.0 mi SE 12.7 mph 19.6 mph N/A   Clear
1:15 PM 68.0 °F 50.0 °F 52% 29.98 in 10.0 mi SE 11.5 mph 17.3 mph N/A   Clear
1:35 PM 69.8 °F 51.8 °F 53% 29.98 in 10.0 mi SSE 11.5 mph 19.6 mph N/A   Clear
1:55 PM 69.8 °F 51.8 °F 53% 29.97 in 10.0 mi SE 11.5 mph 19.6 mph N/A   Clear
2:15 PM 69.8 °F 51.8 °F 53% 29.96 in 10.0 mi SE 11.5 mph 19.6 mph N/A   Clear
2:35 PM 71.6 °F 51.8 °F 50% 29.96 in 10.0 mi SSE 12.7 mph 20.7 mph N/A   Clear
2:55 PM 71.6 °F 51.8 °F 50% 29.96 in 10.0 mi SE 12.7 mph 17.3 mph N/A   Clear
3:15 PM 71.6 °F 51.8 °F 50% 29.96 in 10.0 mi SE 10.4 mph 19.6 mph N/A   Clear
3:35 PM 71.6 °F 53.6 °F 53% 29.96 in 7.0 mi SSE 11.5 mph 16.1 mph N/A   Clear
3:55 PM 71.6 °F 53.6 °F 53% 29.95 in 10.0 mi SE 12.7 mph 18.4 mph N/A   Clear
4:15 PM 71.6 °F 53.6 °F 53% 29.95 in 10.0 mi SSE 13.8 mph 19.6 mph N/A   Clear
4:35 PM 71.6 °F 53.6 °F 53% 29.94 in 10.0 mi SE 15.0 mph 20.7 mph N/A   Clear
4:55 PM 71.6 °F 53.6 °F 53% 29.94 in 10.0 mi SE 15.0 mph 20.7 mph N/A   Clear
5:15 PM 71.6 °F 53.6 °F 53% 29.94 in 10.0 mi SE 11.5 mph 20.7 mph N/A   Clear
5:35 PM 71.6 °F 53.6 °F 53% 29.94 in 10.0 mi SE 11.5 mph 20.7 mph N/A   Clear
5:55 PM 69.8 °F 53.6 °F 56% 29.94 in 10.0 mi SE 11.5 mph 16.1 mph N/A   Clear
6:15 PM 69.8 °F 53.6 °F 56% 29.94 in 10.0 mi SE 11.5 mph 16.1 mph N/A   Clear
6:35 PM 68.0 °F 53.6 °F 60% 29.94 in 10.0 mi SE 10.4 mph - N/A   Clear
6:55 PM 68.0 °F 53.6 °F 60% 29.94 in 10.0 mi SE 8.1 mph - N/A   Clear
7:15 PM 66.2 °F 53.6 °F 64% 29.94 in 10.0 mi SE 10.4 mph - N/A   Clear
7:35 PM 66.2 °F 53.6 °F 64% 29.94 in 10.0 mi SE 10.4 mph - N/A   Clear
7:55 PM 64.4 °F 53.6 °F 68% 29.94 in 10.0 mi SE 9.2 mph - N/A   Clear
8:15 PM 64.4 °F 53.6 °F 68% 29.95 in 10.0 mi SE 9.2 mph - N/A   Clear
8:35 PM 64.4 °F 53.6 °F 68% 29.95 in 10.0 mi SE 10.4 mph - N/A   Clear
8:55 PM 64.4 °F 53.6 °F 68% 29.95 in 10.0 mi SE 8.1 mph - N/A   Clear
9:15 PM 62.6 °F 53.6 °F 72% 29.95 in 10.0 mi SE 8.1 mph 16.1 mph N/A   Clear
9:35 PM 62.6 °F 53.6 °F 72% 29.96 in 10.0 mi SE 5.8 mph - N/A   Clear
9:55 PM 62.6 °F 53.6 °F 72% 29.96 in 10.0 mi SE 4.6 mph - N/A   Clear
10:15 PM 60.8 °F 53.6 °F 77% 29.97 in 10.0 mi SE 4.6 mph - N/A   Clear
10:35 PM 60.8 °F 53.6 °F 77% 29.97 in 10.0 mi SE 5.8 mph - N/A   Clear
10:55 PM 60.8 °F 51.8 °F 72% 29.98 in 10.0 mi SE 5.8 mph - N/A   Clear
11:15 PM 60.8 °F 51.8 °F 72% 29.98 in 10.0 mi SE 5.8 mph - N/A   Clear
11:35 PM 60.8 °F 51.8 °F 72% 29.98 in 10.0 mi SE 5.8 mph - N/A   Clear
11:55 PM 59.0 °F 51.8 °F 77% 29.99 in 10.0 mi SE 6.9 mph - N/A   Clear